Time,TemperatureF,DewpointF,PressureIn,WindDirection,WindDirectionDegrees,WindSpeedMPH,WindSpeedGustMPH,Humidity,HourlyPrecipIn,Conditions,Clouds,dailyrainin,SoftwareType,DateUTC
2013-07-30 00:03:00,59.0,-99.9,30.15,SW,225,0.0,0.0,-999,0.00,,,0.00,,2013-07-30 05:03:00,
2013-07-30 00:13:00,58.0,-99.9,30.15,SW,225,0.0,0.0,-999,0.00,,,0.00,,2013-07-30 05:13:00,
2013-07-30 00:23:00,59.0,-99.9,30.15,SW,225,0.0,0.0,-999,0.00,,,0.00,,2013-07-30 05:23:00,
2013-07-30 00:33:00,59.0,-99.9,30.15,SW,225,0.0,0.0,-999,0.00,,,0.00,,2013-07-30 05:33:00,
2013-07-30 00:45:00,60.0,-99.9,30.15,SW,225,0.0,0.0,-999,0.00,,,0.00,,2013-07-30 05:45:00,
2013-07-30 00:53:00,60.0,-99.9,30.14,SW,225,0.0,0.0,-999,0.00,,,0.00,,2013-07-30 05:53:00,
2013-07-30 01:03:00,60.0,-99.9,30.15,SW,225,0.0,0.0,-999,0.00,,,0.00,,2013-07-30 06:03:00,
2013-07-30 01:13:00,60.0,-99.9,30.14,SW,225,0.0,0.0,-999,0.00,,,0.00,,2013-07-30 06:13:00,
2013-07-30 01:23:00,61.0,-99.9,30.15,SW,225,0.0,0.0,-999,0.00,,,0.00,,2013-07-30 06:23:00,
2013-07-30 01:33:00,61.0,-99.9,30.15,SW,225,0.0,0.0,-999,0.00,,,0.00,,2013-07-30 06:33:00,
2013-07-30 01:43:00,62.0,-99.9,30.16,SW,225,0.0,0.0,-999,0.00,,,0.00,,2013-07-30 06:43:00,
2013-07-30 01:53:00,62.0,-99.9,30.16,SW,225,0.0,0.0,-999,0.00,,,0.00,,2013-07-30 06:53:00,
2013-07-30 02:03:00,62.0,-99.9,30.16,SW,225,0.0,0.0,-999,0.00,,,0.00,,2013-07-30 07:03:00,
2013-07-30 02:13:00,61.0,-99.9,30.15,SW,225,0.0,0.0,-999,0.00,,,0.00,,2013-07-30 07:13:00,
2013-07-30 02:23:00,61.0,-99.9,30.15,SW,225,0.0,0.0,-999,0.00,,,0.00,,2013-07-30 07:23:00,
2013-07-30 02:33:00,61.0,-99.9,30.15,SW,225,0.0,0.0,-999,0.00,,,0.00,,2013-07-30 07:33:00,
2013-07-30 02:43:00,61.0,-99.9,30.15,SW,225,0.0,0.0,-999,0.00,,,0.00,,2013-07-30 07:43:00,
2013-07-30 02:53:00,62.0,-99.9,30.14,SW,225,0.0,0.0,-999,0.00,,,0.00,,2013-07-30 07:53:00,
2013-07-30 03:03:00,62.0,-99.9,30.15,SW,225,0.0,0.0,-999,0.00,,,0.00,,2013-07-30 08:03:00,
2013-07-30 03:13:00,62.0,-99.9,30.15,SW,225,0.0,0.0,-999,0.00,,,0.00,,2013-07-30 08:13:00,
2013-07-30 03:23:00,62.0,-99.9,30.15,SW,225,0.0,0.0,-999,0.00,,,0.00,,2013-07-30 08:23:00,
2013-07-30 03:33:00,62.0,-99.9,30.15,SW,225,0.0,0.0,-999,0.00,,,0.00,,2013-07-30 08:33:00,
2013-07-30 03:43:00,63.0,-99.9,30.15,SW,225,0.0,0.0,-999,0.00,,,0.00,,2013-07-30 08:43:00,
2013-07-30 03:53:00,63.0,-99.9,30.14,SW,225,0.0,0.0,-999,0.00,,,0.00,,2013-07-30 08:53:00,
2013-07-30 04:03:00,62.0,-99.9,30.15,SW,225,0.0,0.0,-999,0.00,,,0.00,,2013-07-30 09:03:00,
2013-07-30 04:13:00,62.0,-99.9,30.14,SW,225,0.0,0.0,-999,0.00,,,0.00,,2013-07-30 09:13:00,
2013-07-30 04:23:00,62.0,-99.9,30.15,SW,225,0.0,0.0,-999,0.00,,,0.00,,2013-07-30 09:23:00,
2013-07-30 04:33:00,62.0,-99.9,30.14,SW,225,0.0,0.0,-999,0.00,,,0.00,,2013-07-30 09:33:00,
2013-07-30 04:43:00,62.0,-99.9,30.14,SW,225,0.0,0.0,-999,0.00,,,0.00,,2013-07-30 09:43:00,
2013-07-30 04:53:00,62.0,-99.9,30.14,SW,225,0.0,0.0,-999,0.00,,,0.00,,2013-07-30 09:53:00,
2013-07-30 05:03:00,63.0,-99.9,30.14,SW,225,0.0,0.0,-999,0.00,,,0.00,,2013-07-30 10:03:00,
2013-07-30 05:23:00,63.0,-99.9,30.14,SW,225,0.0,0.0,-999,0.00,,,0.00,,2013-07-30 10:23:00,
2013-07-30 05:33:00,63.0,-99.9,30.15,SW,225,0.0,0.0,-999,0.00,,,0.00,,2013-07-30 10:33:00,
2013-07-30 05:44:00,63.0,-99.9,30.14,ESE,113,6.0,7.0,-999,0.00,,,0.00,,2013-07-30 10:44:00,
2013-07-30 05:52:00,63.0,-99.9,30.14,ENE,68,0.0,7.0,-999,0.00,,,0.00,,2013-07-30 10:52:00,
2013-07-30 06:02:00,63.0,-99.9,30.15,ENE,68,0.0,0.0,-999,0.00,,,0.00,,2013-07-30 11:02:00,
2013-07-30 06:12:00,63.0,-99.9,30.14,South,180,0.0,2.0,-999,0.00,,,0.00,,2013-07-30 11:12:00,
2013-07-30 06:22:00,63.0,-99.9,30.14,SE,135,0.0,3.0,-999,0.00,,,0.00,,2013-07-30 11:22:00,
2013-07-30 06:33:00,64.0,-99.9,30.14,ESE,113,5.0,6.0,-999,0.00,,,0.00,,2013-07-30 11:33:00,
2013-07-30 06:43:00,64.0,-99.9,30.14,SE,135,5.0,6.0,-999,0.00,,,0.00,,2013-07-30 11:43:00,
2013-07-30 06:53:00,64.0,-99.9,30.14,East,90,0.0,6.0,-999,0.00,,,0.00,,2013-07-30 11:53:00,
2013-07-30 07:12:00,64.0,-99.9,30.14,ESE,113,0.0,5.0,-999,0.00,,,0.00,,2013-07-30 12:12:00,
2013-07-30 07:22:00,64.0,-99.9,30.14,ESE,113,0.0,0.0,-999,0.00,,,0.00,,2013-07-30 12:22:00,
2013-07-30 07:33:00,65.0,-99.9,30.14,ESE,113,0.0,0.0,-999,0.00,,,0.00,,2013-07-30 12:33:00,
2013-07-30 07:42:00,65.0,-99.9,30.15,ENE,68,3.0,6.0,-999,0.00,,,0.00,,2013-07-30 12:42:00,
2013-07-30 07:53:00,66.0,-99.9,30.15,East,90,5.0,6.0,-999,0.00,,,0.00,,2013-07-30 12:53:00,
2013-07-30 08:02:00,67.0,-99.9,30.15,East,90,3.0,6.0,-999,0.00,,,0.00,,2013-07-30 13:02:00,
2013-07-30 08:12:00,68.0,-99.9,30.14,East,90,1.0,6.0,-999,0.00,,,0.00,,2013-07-30 13:12:00,
2013-07-30 08:33:00,68.0,-99.9,30.15,SE,135,7.0,9.0,-999,0.00,,,0.00,,2013-07-30 13:33:00,
2013-07-30 08:43:00,69.0,-99.9,30.16,SE,135,6.0,8.0,-999,0.00,,,0.00,,2013-07-30 13:43:00,
2013-07-30 08:53:00,68.0,-99.9,30.16,ESE,113,2.0,8.0,-999,0.00,,,0.00,,2013-07-30 13:53:00,
2013-07-30 09:03:00,68.0,-99.9,30.16,East,90,3.0,7.0,-999,0.00,,,0.00,,2013-07-30 14:03:00,
2013-07-30 09:12:00,68.0,-99.9,30.15,East,90,2.0,8.0,-999,0.00,,,0.00,,2013-07-30 14:12:00,
2013-07-30 09:22:00,68.0,-99.9,30.15,ENE,68,0.0,8.0,-999,0.00,,,0.00,,2013-07-30 14:22:00,
2013-07-30 09:33:00,68.0,-99.9,30.14,East,90,0.0,6.0,-999,0.00,,,0.00,,2013-07-30 14:33:00,
2013-07-30 09:43:00,68.0,-99.9,30.14,ENE,68,3.0,6.0,-999,0.00,,,0.00,,2013-07-30 14:43:00,
2013-07-30 09:53:00,69.0,-99.9,30.15,East,90,0.0,5.0,-999,0.00,,,0.00,,2013-07-30 14:53:00,
2013-07-30 10:03:00,69.0,-99.9,30.15,ENE,68,2.0,7.0,-999,0.00,,,0.00,,2013-07-30 15:03:00,
2013-07-30 10:12:00,69.0,-99.9,30.14,ENE,68,3.0,7.0,-999,0.00,,,0.00,,2013-07-30 15:12:00,
2013-07-30 10:23:00,70.0,-99.9,30.15,NE,45,0.0,7.0,-999,0.00,,,0.00,,2013-07-30 15:23:00,
2013-07-30 10:33:00,70.0,-99.9,30.14,SE,135,3.0,7.0,-999,0.00,,,0.00,,2013-07-30 15:33:00,
2013-07-30 10:44:00,70.0,-99.9,30.15,East,90,2.0,6.0,-999,0.00,,,0.00,,2013-07-30 15:44:00,
2013-07-30 10:53:00,70.0,-99.9,30.15,East,90,2.0,7.0,-999,0.00,,,0.00,,2013-07-30 15:53:00,
2013-07-30 11:02:00,69.0,-99.9,30.15,East,90,0.0,3.0,-999,0.00,,,0.00,,2013-07-30 16:02:00,
2013-07-30 11:12:00,70.0,-99.9,30.15,East,90,0.0,3.0,-999,0.00,,,0.00,,2013-07-30 16:12:00,
2013-07-30 11:23:00,70.0,-99.9,30.15,East,90,0.0,5.0,-999,0.00,,,0.00,,2013-07-30 16:23:00,
2013-07-30 11:33:00,70.0,-99.9,30.15,ENE,68,0.0,3.0,-999,0.00,,,0.00,,2013-07-30 16:33:00,
2013-07-30 11:44:00,69.0,-99.9,30.14,East,90,0.0,5.0,-999,0.00,,,0.00,,2013-07-30 16:44:00,
2013-07-30 11:53:00,69.0,-99.9,30.14,East,90,0.0,3.0,-999,0.00,,,0.00,,2013-07-30 16:53:00,
2013-07-30 12:02:00,68.0,-99.9,30.14,East,90,0.0,0.0,-999,0.00,,,0.00,,2013-07-30 17:02:00,
2013-07-30 12:13:00,68.0,-99.9,30.14,East,90,0.0,0.0,-999,0.00,,,0.00,,2013-07-30 17:13:00,
2013-07-30 12:22:00,68.0,-99.9,30.14,East,90,0.0,0.0,-999,0.01,,,0.01,,2013-07-30 17:22:00,
2013-07-30 12:32:00,68.0,-99.9,30.14,East,90,0.0,0.0,-999,0.02,,,0.02,,2013-07-30 17:32:00,
2013-07-30 12:43:00,68.0,-99.9,30.13,East,90,0.0,0.0,-999,0.02,,,0.02,,2013-07-30 17:43:00,
2013-07-30 12:54:00,68.0,-99.9,30.13,East,90,0.0,0.0,-999,0.03,,,0.03,,2013-07-30 17:54:00,
2013-07-30 13:03:00,68.0,-99.9,30.13,East,90,0.0,0.0,-999,0.05,,,0.05,,2013-07-30 18:03:00,
2013-07-30 13:12:00,68.0,-99.9,30.13,East,90,0.0,0.0,-999,0.07,,,0.07,,2013-07-30 18:12:00,
2013-07-30 13:23:00,69.0,-99.9,30.12,East,90,0.0,0.0,-999,0.07,,,0.08,,2013-07-30 18:23:00,
2013-07-30 13:33:00,69.0,-99.9,30.12,East,90,0.0,0.0,-999,0.07,,,0.09,,2013-07-30 18:33:00,
2013-07-30 13:43:00,70.0,-99.9,30.12,ENE,68,1.0,7.0,-999,0.08,,,0.10,,2013-07-30 18:43:00,
2013-07-30 13:52:00,70.0,-99.9,30.12,NE,45,0.0,7.0,-999,0.07,,,0.10,,2013-07-30 18:52:00,
2013-07-30 14:03:00,70.0,-99.9,30.11,East,90,0.0,8.0,-999,0.06,,,0.11,,2013-07-30 19:03:00,
2013-07-30 14:12:00,69.0,-99.9,30.11,East,90,0.0,0.0,-999,0.04,,,0.11,,2013-07-30 19:12:00,
2013-07-30 14:23:00,70.0,-99.9,30.11,East,90,3.0,6.0,-999,0.03,,,0.11,,2013-07-30 19:23:00,
2013-07-30 14:33:00,70.0,-99.9,30.11,East,90,7.0,9.0,-999,0.03,,,0.12,,2013-07-30 19:33:00,
2013-07-30 14:44:00,70.0,-99.9,30.11,East,90,6.0,10.0,-999,0.02,,,0.12,,2013-07-30 19:44:00,
2013-07-30 14:53:00,70.0,-99.9,30.10,ENE,68,3.0,10.0,-999,0.03,,,0.13,,2013-07-30 19:53:00,
2013-07-30 15:02:00,71.0,-99.9,30.10,ESE,113,6.0,9.0,-999,0.02,,,0.13,,2013-07-30 20:02:00,
2013-07-30 15:13:00,71.0,-99.9,30.10,ESE,113,0.0,8.0,-999,0.02,,,0.13,,2013-07-30 20:13:00,
2013-07-30 15:22:00,71.0,-99.9,30.09,East,90,5.0,8.0,-999,0.03,,,0.14,,2013-07-30 20:22:00,
2013-07-30 15:33:00,71.0,-99.9,30.09,ESE,113,2.0,10.0,-999,0.02,,,0.14,,2013-07-30 20:33:00,
2013-07-30 15:43:00,72.0,-99.9,30.09,East,90,5.0,10.0,-999,0.02,,,0.14,,2013-07-30 20:43:00,
2013-07-30 15:52:00,72.0,-99.9,30.08,ESE,113,5.0,10.0,-999,0.01,,,0.14,,2013-07-30 20:52:00,
2013-07-30 16:03:00,71.0,-99.9,30.08,ESE,113,2.0,13.0,-999,0.01,,,0.14,,2013-07-30 21:03:00,
2013-07-30 16:12:00,71.0,-99.9,30.07,SSE,158,1.0,10.0,-999,0.01,,,0.14,,2013-07-30 21:12:00,
2013-07-30 16:22:00,71.0,-99.9,30.07,East,90,0.0,9.0,-999,0.00,,,0.14,,2013-07-30 21:22:00,
2013-07-30 16:32:00,71.0,-99.9,30.07,ESE,113,1.0,8.0,-999,0.00,,,0.14,,2013-07-30 21:32:00,
2013-07-30 16:42:00,72.0,-99.9,30.07,SE,135,0.0,10.0,-999,0.01,,,0.15,,2013-07-30 21:42:00,
2013-07-30 16:53:00,73.0,-99.9,30.07,East,90,0.0,7.0,-999,0.01,,,0.15,,2013-07-30 21:53:00,
2013-07-30 17:02:00,72.0,-99.9,30.07,East,90,0.0,9.0,-999,0.01,,,0.15,,2013-07-30 22:02:00,
2013-07-30 17:12:00,71.0,-99.9,30.07,SSE,158,0.0,6.0,-999,0.01,,,0.15,,2013-07-30 22:12:00,
2013-07-30 17:22:00,70.0,-99.9,30.07,SSE,158,2.0,7.0,-999,0.01,,,0.15,,2013-07-30 22:22:00,
2013-07-30 17:32:00,71.0,-99.9,30.06,ESE,113,0.0,8.0,-999,0.01,,,0.15,,2013-07-30 22:32:00,
2013-07-30 17:43:00,70.0,-99.9,30.06,ESE,113,0.0,0.0,-999,0.01,,,0.16,,2013-07-30 22:43:00,
2013-07-30 17:53:00,71.0,-99.9,30.06,ESE,113,0.0,0.0,-999,0.01,,,0.16,,2013-07-30 22:53:00,
2013-07-30 18:02:00,71.0,-99.9,30.06,ESE,113,0.0,0.0,-999,0.01,,,0.16,,2013-07-30 23:02:00,
2013-07-30 18:13:00,71.0,-99.9,30.05,ESE,113,0.0,0.0,-999,0.01,,,0.16,,2013-07-30 23:13:00,
2013-07-30 18:23:00,71.0,-99.9,30.05,ESE,113,0.0,0.0,-999,0.01,,,0.16,,2013-07-30 23:23:00,
2013-07-30 18:32:00,71.0,-99.9,30.05,ESE,113,0.0,0.0,-999,0.01,,,0.16,,2013-07-30 23:32:00,
2013-07-30 18:42:00,70.0,-99.9,30.05,ESE,113,0.0,0.0,-999,0.00,,,0.16,,2013-07-30 23:42:00,
2013-07-30 18:53:00,70.0,-99.9,30.05,ESE,113,0.0,0.0,-999,0.00,,,0.16,,2013-07-30 23:53:00,
2013-07-30 19:02:00,70.0,-99.9,30.05,ESE,113,0.0,0.0,-999,0.00,,,0.16,,2013-07-31 00:02:00,
2013-07-30 19:12:00,70.0,-99.9,30.05,ESE,113,0.0,0.0,-999,0.00,,,0.16,,2013-07-31 00:12:00,
2013-07-30 19:22:00,70.0,-99.9,30.05,ESE,113,0.0,0.0,-999,0.00,,,0.16,,2013-07-31 00:22:00,
2013-07-30 19:32:00,69.0,-99.9,30.05,ESE,113,0.0,0.0,-999,0.00,,,0.16,,2013-07-31 00:32:00,
2013-07-30 19:43:00,69.0,-99.9,30.05,ESE,113,0.0,0.0,-999,0.00,,,0.16,,2013-07-31 00:43:00,
2013-07-30 19:53:00,68.0,-99.9,30.05,ESE,113,0.0,0.0,-999,0.00,,,0.16,,2013-07-31 00:53:00,
2013-07-30 20:02:00,69.0,-99.9,30.05,ESE,113,0.0,0.0,-999,0.00,,,0.16,,2013-07-31 01:02:00,
2013-07-30 20:12:00,69.0,-99.9,30.05,ESE,113,0.0,0.0,-999,0.00,,,0.16,,2013-07-31 01:12:00,
2013-07-30 20:22:00,68.0,-99.9,30.05,ESE,113,0.0,0.0,-999,0.01,,,0.17,,2013-07-31 01:22:00,
2013-07-30 20:32:00,68.0,-99.9,30.05,ESE,113,0.0,0.0,-999,0.01,,,0.17,,2013-07-31 01:32:00,
2013-07-30 20:43:00,68.0,-99.9,30.05,ESE,113,0.0,0.0,-999,0.01,,,0.17,,2013-07-31 01:43:00,
2013-07-30 20:52:00,68.0,-99.9,30.05,ESE,113,0.0,0.0,-999,0.01,,,0.17,,2013-07-31 01:52:00,
2013-07-30 21:02:00,67.0,-99.9,30.05,ESE,113,0.0,0.0,-999,0.01,,,0.17,,2013-07-31 02:02:00,
2013-07-30 21:12:00,68.0,-99.9,30.05,ESE,113,0.0,0.0,-999,0.01,,,0.17,,2013-07-31 02:12:00,
2013-07-30 21:22:00,68.0,-99.9,30.05,ESE,113,0.0,0.0,-999,0.01,,,0.17,,2013-07-31 02:22:00,
2013-07-30 21:32:00,68.0,-99.9,30.05,ESE,113,0.0,0.0,-999,0.00,,,0.17,,2013-07-31 02:32:00,
2013-07-30 21:43:00,68.0,-99.9,30.06,ESE,113,0.0,0.0,-999,0.00,,,0.17,,2013-07-31 02:43:00,
2013-07-30 21:53:00,67.0,-99.9,30.06,ESE,113,0.0,0.0,-999,0.00,,,0.17,,2013-07-31 02:53:00,
2013-07-30 22:02:00,67.0,-99.9,30.06,ESE,113,0.0,0.0,-999,0.00,,,0.17,,2013-07-31 03:02:00,
2013-07-30 22:12:00,67.0,-99.9,30.06,ESE,113,0.0,0.0,-999,0.00,,,0.17,,2013-07-31 03:12:00,
2013-07-30 22:32:00,67.0,-99.9,30.05,ESE,113,0.0,0.0,-999,0.00,,,0.17,,2013-07-31 03:32:00,
2013-07-30 22:42:00,68.0,-99.9,30.05,ESE,113,0.0,0.0,-999,0.00,,,0.17,,2013-07-31 03:42:00,
2013-07-30 22:52:00,67.0,-99.9,30.05,ESE,113,0.0,0.0,-999,0.00,,,0.17,,2013-07-31 03:52:00,
2013-07-30 23:02:00,67.0,-99.9,30.05,ESE,113,0.0,0.0,-999,0.00,,,0.17,,2013-07-31 04:02:00,
2013-07-30 23:12:00,67.0,-99.9,30.05,ESE,113,0.0,0.0,-999,0.00,,,0.17,,2013-07-31 04:12:00,
2013-07-30 23:22:00,67.0,-99.9,30.05,ESE,113,0.0,0.0,-999,0.00,,,0.17,,2013-07-31 04:22:00,
2013-07-30 23:32:00,67.0,-99.9,30.05,ESE,113,0.0,0.0,-999,0.00,,,0.17,,2013-07-31 04:32:00,
2013-07-30 23:42:00,67.0,-99.9,30.05,ESE,113,0.0,0.0,-999,0.00,,,0.17,,2013-07-31 04:42:00,
2013-07-30 23:52:00,67.0,-99.9,30.05,ESE,113,0.0,0.0,-999,0.00,,,0.17,,2013-07-31 04:52:00,